Weather History for Durango, Mexico

Change the Weather History Date:

Sunday, October 21, 2012

  Actual Average Record
Temperature  
Mean Temperature 66 °F -  
Max Temperature 87 °F 74 °F 87 °F (2012)
Min Temperature 46 °F 41 °F 39 °F (1997)
Cooling Degree Days 2    
Growing Degree Days 16 (Base 50)    
Moisture  
Dew Point 43 °F    
Average Humidity 42    
Maximum Humidity 87    
Minimum Humidity 16    
Precipitation  
Precipitation 0.00 in - - ()
Sea Level Pressure  
Sea Level Pressure 29.96 in    
Wind  
Wind Speed 2 mph ()    
Max Wind Speed 8 mph    
Max Gust Speed -    
Visibility 12.9 miles    
Events      
Averages and records for this station are not official NWS values.
T = Trace of Precipitation, MM = Missing Value Source: Averaged Metar Reports

Daily Weather History Graph

Daily Weather History Graph

Search for Another Location

Airport:

Trip Planner

Search our weather history database for the weather conditions in past years. The results will help you decide how hot, cold, wet, or windy it might be!

Date:

Astronomy

Oct. 21, 2012 Rise Set
Actual Time 7:58 AM CDT 7:26 PM CDT
Civil Twilight 7:35 AM CDT 7:49 PM CDT
Nautical Twilight 7:09 AM CDT 8:15 PM CDT
Astronomical Twilight 6:42 AM CDT 8:42 PM CDT
Moon 2:09 PM CDT (10/21) 12:31 AM CDT (10/21)
Length of Visible Light 12h 13m
Length of Day
11h 27m
Waxing Crescent, 45% of the Moon is Illuminated
Oct 21
Waxing Crescent
Oct 21
First Quarter
Oct 29
Full
Nov 6
Last Quarter
Nov 13
New

Hourly Weather History & Observations

Time (CDT) Temp. Windchill Dew Point Humidity Pressure Visibility Wind Dir Wind Speed Gust Speed Precip Events Conditions
12:55 AM 65 °F - 45 °F 36% 29.64 in 6 mi Calm Calm - -  
3:55 AM 59 °F - 45 °F 49% 29.73 in 6 mi Calm Calm - -  
6:04 AM 48.2 °F - 44.6 °F 87% 30.16 in 8.0 mi Calm Calm - N/A   Clear
6:44 AM 46.4 °F 44.3 °F 39.2 °F 76% 29.80 in 8.0 mi North 4.6 mph - N/A   Clear
6:55 AM 52 °F - 44 °F 67% 29.83 in 6 mi Calm Calm - -  
7:48 AM 46.4 °F - 39.2 °F 76% 30.20 in 12.0 mi Calm Calm - N/A   Clear
8:44 AM 50.0 °F - 41.0 °F 71% 30.20 in 14.0 mi Calm Calm - N/A   Clear
9:43 AM 60.8 °F - 50.0 °F 68% 29.86 in 14.0 mi Calm Calm - N/A   Clear
9:50 AM 56 °F - 46 °F 59% 29.94 in 19 mi ESE 2.2 mph - -  
10:40 AM 68.0 °F - 44.6 °F 43% 30.24 in 14.0 mi Calm Calm - N/A   Clear
11:49 AM 77.0 °F - 41.0 °F 28% 30.22 in 14.0 mi Calm Calm - N/A   Clear
12:41 PM 80.6 °F - 46.4 °F 30% 29.77 in 14.0 mi West 6.9 mph - N/A   Clear
12:57 PM 78 °F - 44 °F 20% 29.90 in 19 mi SSE 2.2 mph - -  
1:45 PM 84.2 °F - 39.2 °F 20% 30.16 in 14.0 mi West 4.6 mph - N/A   Clear
2:45 PM 84.2 °F - 39.2 °F 20% 30.12 in 14.0 mi West 8.1 mph - N/A   Clear
3:48 PM 87.8 °F - 41.0 °F 19% 29.68 in 14.0 mi WSW 6.9 mph - N/A   Clear
4:06 PM 85 °F - 55 °F 26% 29.72 in 19 mi WSW 2.2 mph - -   Scattered Clouds
4:42 PM 87.8 °F - 35.6 °F 16% 30.10 in 14.0 mi Calm Calm - N/A   Clear
5:45 PM 86.0 °F - 42.8 °F 22% 30.10 in 14.0 mi East 4.6 mph - N/A   Clear
6:50 PM 80.6 °F - 37.4 °F 21% 29.72 in 14.0 mi ENE 8.1 mph - N/A   Clear
7:42 PM 75.2 °F - 37.4 °F 25% 30.10 in 14.0 mi Calm Calm - N/A   Clear